Wind_Speed
45 46 45 45 45 45 46 46 47 46 46 44 44 45 45 46 47 48 48 50 50 51 52 52 53 54 54 55 55 56 56 56 55 55 55 55 54 53 52 51 49 48 47 45
46 46 47 47 46 47 47 46 47 47 46 44 45 46 47 47 47 48 49 50 50 51 52 52 53 53 54 54 55 55 55 55 54 54 53 52 52 51 50 48 46 45 43 43
46 46 47 49 47 47 47 46 46 46 45 45 46 46 47 48 48 49 50 50 50 51 51 52 53 53 53 53 53 53 53 53 53 53 51 50 49 47 46 45 43 41 40 39
44 45 47 46 45 45 46 46 46 46 46 46 47 47 47 48 49 49 49 50 50 51 52 52 53 53 53 52 53 52 52 52 52 50 48 47 46 44 42 41 39 38 37 36
42 44 46 44 42 43 45 45 45 46 46 46 47 47 48 48 48 48 49 50 51 51 51 52 51 51 51 52 52 51 51 50 49 47 45 43 42 41 40 38 36 35 33 33
40 42 43 42 42 43 44 45 44 45 46 46 47 47 46 46 46 47 49 49 50 50 50 50 50 51 51 51 50 49 49 47 46 44 43 41 39 38 36 35 33 32 31 30
39 40 41 40 40 41 42 43 43 43 44 44 45 45 45 45 46 47 47 48 48 49 49 49 49 50 49 49 48 47 46 44 43 42 42 40 38 36 34 32 29 28 27 26
38 39 38 37 39 40 41 41 41 41 42 43 43 43 44 45 46 47 47 48 48 48 48 48 48 48 47 46 45 44 43 42 41 41 39 38 36 33 31 29 26 25 23 22
38 38 37 36 36 38 38 39 40 41 42 43 44 44 45 46 46 47 47 47 47 48 47 47 48 47 46 45 44 43 42 41 40 38 37 35 33 30 28 26 24 22 21 19
35 36 36 36 36 37 38 38 39 41 41 42 42 43 44 44 45 45 45 45 46 46 46 46 46 45 44 43 42 41 40 39 38 36 34 32 30 27 25 22 21 19 18 18
34 34 35 35 36 37 38 38 39 40 41 42 42 41 41 41 42 42 42 42 43 43 43 43 43 42 42 41 40 39 38 37 35 33 31 29 27 25 22 19 18 17 17 17
34 34 35 35 35 36 37 39 40 40 41 41 42 41 41 41 41 41 40 41 41 41 41 41 40 40 40 39 39 37 35 33 31 29 27 25 23 21 19 17 16 16 15 16
34 34 34 35 35 35 36 38 39 40 40 40 41 41 42 42 41 40 40 40 40 40 40 39 38 38 37 36 35 33 31 29 28 26 24 22 20 18 17 17 17 16 15 15
32 33 33 33 34 35 35 36 37 37 37 38 38 39 39 39 40 40 40 40 39 39 38 37 36 34 33 33 31 29 28 26 24 22 21 20 18 16 16 16 17 16 15 15
30 31 32 33 34 34 35 35 35 34 34 35 35 36 36 37 37 37 37 37 36 35 34 33 32 31 30 29 27 26 25 23 22 21 20 18 16 15 15 16 16 16 16 16
28 29 30 31 32 32 32 31 31 31 31 32 32 33 33 33 33 33 32 32 32 31 30 30 30 29 27 26 24 23 22 21 20 19 17 15 14 14 15 16 16 16 16 16
27 27 27 27 27 27 27 27 27 28 28 29 29 29 29 29 28 28 29 29 28 28 28 27 27 26 24 23 22 21 19 18 18 18 16 16 15 15 16 16 16 16 16 16
24 24 24 25 24 24 25 25 25 27 28 28 28 28 27 27 27 26 26 26 26 26 25 24 23 22 21 21 20 19 18 18 18 17 16 16 15 15 15 15 15 15 16 16
23 23 24 24 24 24 24 25 25 26 26 26 26 25 26 25 25 24 23 23 22 22 22 22 22 21 20 20 19 18 17 17 17 16 15 14 14 14 14 15 15 15 15 16
21 22 22 22 23 23 23 24 24 24 24 24 23 23 22 21 20 20 20 20 20 20 20 20 20 20 19 18 17 16 16 16 15 15 14 13 13 13 13 14 14 15 16 16
20 20 21 21 21 21 21 22 22 22 22 22 21 20 19 18 18 17 18 18 18 18 18 18 18 18 17 16 15 14 14 14 14 13 13 13 13 13 13 13 14 15 16 16
19 18 18 19 19 20 20 21 21 21 20 19 19 18 17 16 16 17 17 17 17 17 17 16 16 15 14 13 13 13 12 12 12 12 12 13 13 14 14 14 14 15 16 17
17 17 17 18 18 19 19 20 20 19 18 18 17 16 16 15 16 16 17 17 16 16 15 15 14 13 12 11 11 11 11 11 11 11 11 12 13 14 15 15 16 16 17 17
16 16 17 17 17 17 18 18 18 17 16 16 15 14 14 14 14 14 14 15 15 14 13 12 11 10 10 9 10 10 11 11 11 11 11 13 14 15 16 16 17 17 18 18
16 16 16 16 16 16 16 16 15 15 15 15 14 14 13 12 12 12 12 12 11 11 10 9 8 7 7 8 8 9 10 11 11 12 12 14 15 16 16 17 17 18 18 19
14 14 15 15 15 15 14 14 14 14 13 13 12 12 11 11 10 10 10 9 8 7 6 5 4 4 5 5 7 8 10 11 11 12 13 15 16 16 17 17 17 18 18 19
13 13 13 13 13 13 13 13 12 11 11 10 10 10 9 8 8 8 7 6 5 4 3 2 2 3 3 4 6 8 9 10 11 12 13 15 16 16 17 18 19 19 19 20
Wind_Direction
253 254 255 256 257 259 261 263 266 268 270 272 272 273 275 277 278 280 281 283 284 285 287 289 290 291 292 292 292 292 293 294 293 293 293 293 292 290 290 288 287 284 282 281
252 254 255 256 257 259 261 263 265 267 269 271 272 273 274 276 278 279 281 283 284 286 287 289 290 292 292 292 292 292 293 294 294 294 294 293 291 290 290 288 286 284 282 280
252 253 254 256 258 259 261 262 264 266 268 269 270 272 274 276 278 279 281 283 285 286 288 289 290 292 293 293 293 293 293 294 294 295 295 293 293 292 291 289 287 284 280 278
254 254 255 257 258 259 261 262 263 264 266 268 271 272 274 276 278 280 282 283 285 287 288 289 290 291 293 293 293 293 293 293 294 295 295 294 293 292 291 290 287 282 280 277
256 258 259 259 260 260 261 262 263 266 267 269 270 272 274 276 279 281 283 285 286 288 288 289 290 292 293 293 293 293 293 293 294 294 295 294 293 292 290 288 286 283 280 278
257 259 260 261 260 260 262 263 264 266 268 270 272 273 275 277 279 282 284 287 288 289 289 289 290 292 293 293 293 292 293 293 293 293 294 293 292 291 289 287 284 281 279 277
257 259 261 262 262 262 263 265 266 268 270 272 273 275 275 277 279 282 284 286 287 288 289 290 290 291 293 293 292 291 291 292 292 292 292 292 291 289 286 284 281 279 277 274
256 258 260 261 262 264 266 267 267 269 271 272 274 275 276 278 280 282 284 285 286 287 289 290 291 291 291 292 291 291 291 291 291 291 291 292 291 288 285 281 278 275 272 268
257 259 261 261 263 265 267 267 268 269 271 273 274 276 277 279 281 283 284 284 285 286 288 289 290 291 291 291 291 290 291 290 289 290 290 290 288 286 282 276 274 271 266 259
258 259 261 262 263 266 268 270 270 271 273 275 276 277 279 281 282 283 283 283 284 285 287 288 289 290 290 290 289 289 288 288 287 287 287 285 283 282 278 271 269 265 258 253
257 259 261 262 263 266 268 271 273 274 274 275 276 277 279 280 280 282 283 283 284 285 286 287 288 288 289 289 288 287 287 287 286 285 284 282 279 278 272 265 262 257 251 248
258 259 262 262 264 266 269 271 274 276 276 276 277 278 278 279 281 282 283 284 284 285 286 287 287 288 288 288 287 286 285 285 285 283 281 278 276 272 265 258 251 248 245 241
260 262 264 265 265 267 270 273 276 277 278 278 279 280 280 280 281 282 284 284 284 286 287 287 287 287 287 288 286 284 284 284 283 281 278 274 272 266 257 250 244 241 237 233
263 265 266 267 268 270 272 275 277 278 279 280 280 281 281 282 283 284 284 284 285 285 286 286 286 285 286 287 285 283 282 282 279 276 272 268 265 260 251 243 239 237 233 229
263 265 267 269 270 273 275 276 278 280 280 280 281 281 282 283 283 285 285 285 285 285 286 285 284 284 285 284 283 282 280 278 275 272 267 263 261 257 244 236 233 232 231 228
266 268 270 272 273 275 276 278 279 279 280 281 281 282 283 284 283 284 285 284 284 284 284 283 282 282 281 279 279 278 276 274 270 265 259 257 257 251 240 235 230 227 225 223
270 271 272 274 275 275 276 278 280 281 282 282 282 283 284 284 284 285 284 285 284 284 284 283 282 281 278 276 275 274 272 268 264 259 257 257 254 248 240 233 229 225 220 219
269 271 273 274 275 275 277 279 281 283 285 285 284 283 284 284 284 285 286 286 285 285 286 284 282 280 277 274 272 270 268 265 260 257 258 257 251 243 233 227 225 222 219 216
270 272 274 275 276 276 277 278 281 284 285 286 286 286 286 287 286 286 286 285 285 285 286 284 281 279 277 275 272 269 265 260 256 255 254 249 242 233 225 222 221 218 214 208
273 274 275 275 276 278 278 279 281 285 286 287 287 288 288 288 289 288 287 286 285 285 285 284 282 279 276 272 267 263 258 253 250 249 245 239 230 222 217 214 213 208 202 199
275 276 276 277 278 279 280 282 284 286 287 288 290 290 290 289 287 287 288 288 287 287 287 285 282 277 271 266 261 256 249 246 244 241 235 228 222 217 210 205 202 197 193 193
278 280 281 281 280 280 282 285 287 289 289 291 292 293 293 291 290 290 290 289 288 288 288 286 282 276 270 263 257 250 243 241 238 232 225 218 213 208 200 195 192 190 188 186
280 281 283 284 283 283 284 286 288 289 290 291 293 293 293 292 293 292 291 290 289 288 288 285 279 272 265 258 251 242 236 233 229 224 217 209 203 197 191 187 185 184 182 181
278 281 283 285 286 286 287 288 288 289 290 290 291 292 294 296 296 295 295 293 289 287 287 284 276 266 259 250 241 232 227 223 217 208 200 195 193 190 185 183 181 180 180 180
278 282 284 286 287 288 289 289 289 290 291 290 290 291 294 296 298 297 297 297 294 291 287 280 271 260 249 238 229 221 214 209 204 197 191 187 186 183 181 179 177 176 177 178
279 280 284 288 289 290 291 292 294 294 294 293 291 292 294 296 298 298 300 300 299 295 287 276 264 249 230 220 209 200 196 193 191 187 184 181 179 179 178 177 175 174 174 175
280 283 287 291 292 294 294 295 296 298 298 296 294 293 294 295 297 300 302 302 303 303 297 274 241 214 196 188 186 184 184 185 184 181 179 179 178 178 177 177 175 174 174 172
Height
5580 5582 5584 5586 5589 5590 5590 5592 5593 5596 5597 5599 5597 5594 5593 5592 5590 5588 5586 5583 5581 5578 5575 5572 5568 5564 5559 5555 5550 5545 5541 5536 5531 5527 5522 5517 5512 5508 5504 5499 5495 5492 5490 5487
5567 5569 5570 5572 5576 5577 5578 5579 5580 5581 5584 5585 5583 5582 5580 5579 5578 5576 5573 5571 5568 5565 5562 5558 5554 5550 5546 5541 5536 5531 5527 5521 5517 5512 5507 5503 5498 5494 5490 5486 5482 5479 5476 5475
5555 5557 5557 5560 5565 5566 5566 5567 5568 5568 5572 5571 5570 5569 5568 5566 5565 5562 5560 5557 5555 5551 5548 5544 5540 5536 5532 5527 5522 5517 5513 5508 5503 5498 5494 5489 5485 5480 5476 5472 5469 5466 5464 5463
5541 5544 5544 5552 5554 5554 5553 5554 5555 5555 5556 5557 5556 5555 5554 5553 5551 5549 5547 5544 5541 5538 5534 5531 5526 5522 5518 5513 5508 5504 5499 5495 5490 5485 5481 5476 5472 5468 5464 5461 5458 5455 5454 5452
5530 5531 5532 5539 5541 5541 5540 5541 5542 5543 5543 5543 5542 5541 5541 5540 5537 5535 5533 5530 5527 5524 5520 5517 5513 5508 5504 5500 5495 5491 5486 5482 5478 5473 5469 5465 5461 5457 5454 5450 5448 5445 5444 5443
5519 5520 5522 5528 5528 5527 5528 5528 5530 5530 5530 5530 5529 5528 5529 5526 5524 5522 5519 5517 5514 5510 5507 5503 5499 5495 5491 5486 5482 5478 5474 5470 5466 5461 5457 5454 5450 5447 5444 5441 5439 5437 5436 5435
5508 5509 5511 5516 5515 5515 5517 5518 5518 5517 5517 5516 5515 5515 5515 5513 5511 5509 5506 5503 5500 5497 5494 5490 5486 5482 5478 5474 5470 5465 5462 5458 5454 5451 5447 5443 5440 5437 5434 5432 5430 5429 5428 5427
5498 5499 5504 5504 5503 5504 5504 5504 5504 5504 5504 5503 5502 5501 5500 5499 5497 5495 5493 5490 5487 5484 5480 5477 5473 5469 5466 5462 5457 5454 5450 5447 5444 5440 5436 5433 5430 5428 5426 5424 5423 5422 5421 5421
5488 5491 5492 5492 5492 5491 5491 5491 5491 5491 5491 5490 5490 5488 5487 5486 5484 5482 5479 5477 5474 5470 5468 5464 5460 5456 5453 5449 5446 5442 5439 5436 5433 5430 5427 5423 5421 5419 5417 5416 5416 5415 5415 5416
5476 5478 5480 5480 5480 5480 5479 5479 5479 5479 5478 5478 5476 5475 5474 5472 5470 5468 5466 5463 5460 5457 5455 5452 5448 5444 5441 5437 5434 5431 5428 5426 5422 5420 5417 5415 5413 5411 5410 5409 5409 5409 5410 5411
5466 5468 5468 5469 5469 5468 5468 5467 5467 5467 5466 5465 5464 5462 5461 5459 5457 5455 5452 5450 5447 5444 5442 5439 5436 5432 5429 5425 5423 5420 5418 5415 5412 5410 5408 5406 5405 5404 5403 5404 5403 5404 5405 5406
5456 5457 5457 5458 5458 5458 5457 5457 5456 5455 5454 5453 5451 5450 5448 5446 5444 5442 5440 5437 5435 5432 5429 5427 5424 5421 5417 5414 5411 5409 5407 5405 5403 5401 5400 5399 5398 5398 5397 5398 5398 5399 5400 5401
5445 5446 5446 5447 5448 5447 5446 5446 5445 5444 5442 5441 5439 5437 5436 5434 5432 5430 5428 5425 5422 5420 5417 5415 5412 5409 5406 5403 5401 5399 5398 5396 5395 5393 5392 5391 5391 5391 5392 5393 5393 5394 5396 5397
5436 5436 5436 5437 5437 5436 5436 5435 5434 5432 5431 5429 5428 5426 5424 5422 5420 5418 5415 5413 5410 5408 5406 5403 5401 5399 5396 5393 5392 5390 5389 5387 5386 5386 5385 5385 5385 5386 5387 5388 5389 5390 5392 5393
5427 5426 5427 5427 5427 5426 5425 5424 5423 5422 5420 5418 5416 5414 5412 5410 5408 5406 5404 5401 5399 5397 5395 5393 5391 5389 5387 5385 5383 5382 5381 5380 5379 5379 5379 5379 5379 5380 5381 5383 5385 5387 5388 5390
5418 5417 5417 5417 5417 5416 5415 5414 5413 5411 5410 5408 5406 5404 5402 5400 5398 5396 5393 5391 5389 5387 5385 5383 5381 5380 5378 5377 5375 5374 5373 5373 5373 5373 5373 5373 5374 5375 5376 5378 5380 5382 5384 5386
5409 5409 5409 5408 5408 5407 5406 5405 5404 5402 5400 5399 5397 5394 5392 5390 5388 5386 5384 5382 5380 5378 5376 5374 5372 5371 5370 5369 5368 5367 5367 5367 5367 5367 5368 5368 5369 5370 5371 5373 5376 5378 5380 5382
5401 5401 5401 5400 5400 5399 5398 5397 5395 5394 5392 5390 5388 5386 5383 5381 5379 5377 5375 5373 5371 5369 5367 5366 5364 5363 5362 5361 5361 5361 5361 5361 5361 5362 5362 5363 5364 5365 5366 5369 5371 5374 5376 5379
5394 5393 5393 5392 5392 5391 5390 5389 5387 5386 5383 5381 5379 5377 5375 5373 5371 5369 5367 5365 5363 5362 5360 5358 5357 5356 5355 5355 5354 5354 5354 5355 5356 5356 5357 5358 5359 5360 5362 5365 5367 5370 5373 5375
5387 5386 5386 5385 5384 5383 5382 5381 5380 5378 5376 5373 5371 5369 5367 5365 5363 5361 5360 5358 5356 5354 5353 5351 5350 5349 5348 5348 5348 5348 5349 5349 5350 5351 5352 5354 5355 5357 5359 5361 5364 5367 5370 5373
5380 5379 5379 5378 5377 5376 5375 5374 5372 5370 5368 5366 5364 5362 5360 5358 5357 5355 5353 5352 5350 5348 5346 5345 5344 5343 5342 5342 5342 5343 5343 5344 5345 5346 5348 5350 5352 5354 5356 5359 5362 5365 5368 5371
5374 5373 5372 5371 5370 5369 5368 5367 5365 5363 5362 5360 5358 5356 5354 5352 5350 5349 5347 5345 5344 5342 5340 5339 5338 5337 5336 5337 5337 5338 5339 5340 5341 5342 5344 5346 5349 5351 5354 5357 5360 5363 5367 5370
5367 5367 5366 5365 5364 5363 5362 5360 5359 5357 5356 5354 5352 5350 5348 5346 5345 5343 5341 5339 5337 5336 5335 5333 5332 5332 5332 5332 5333 5334 5335 5336 5337 5339 5341 5343 5346 5349 5352 5355 5359 5362 5366 5369
5362 5361 5360 5359 5358 5357 5356 5354 5353 5351 5350 5348 5346 5345 5343 5341 5339 5337 5335 5334 5332 5331 5329 5328 5328 5327 5327 5328 5329 5330 5332 5333 5334 5336 5338 5341 5344 5347 5351 5354 5358 5361 5365 5369
5356 5355 5355 5354 5352 5351 5350 5349 5347 5346 5344 5343 5341 5339 5338 5336 5335 5333 5331 5329 5327 5326 5325 5325 5324 5324 5324 5325 5326 5327 5329 5330 5332 5334 5337 5340 5343 5346 5350 5353 5357 5361 5364 5368
5351 5350 5349 5348 5347 5346 5344 5343 5342 5340 5339 5337 5336 5334 5333 5331 5330 5329 5327 5326 5324 5323 5323 5322 5322 5322 5322 5323 5324 5325 5327 5329 5331 5333 5336 5339 5343 5346 5349 5353 5357 5361 5364 5368
5346 5345 5344 5343 5342 5341 5340 5339 5337 5336 5334 5333 5332 5331 5329 5328 5327 5326 5325 5324 5323 5322 5321 5321 5321 5321 5321 5322 5323 5324 5326 5328 5330 5333 5335 5338 5342 5345 5349 5353 5357 5360 5364 5368